Lewiston, WA

5:17 AM PST on December 16, 2017 (GMT -0800)
Lewiston-Nez Perce County

Weather History for KLWS - October, 2011

Change the Weather History Date:

Friday, October 28, 2011

  Actual Average Record
Temperature  
Mean Temperature 48 °F 47 °F  
Max Temperature 60 °F 56 °F 75 °F (2003)
Min Temperature 35 °F 38 °F 18 °F (1971)
Degree Days  
Heating Degree Days 17 18  
Month to date heating degree days 317 355  
Since 1 July heating degree days 341 469  
Cooling Degree Days 0 0  
Month to date cooling degree days 8 1  
Year to date cooling degree days 742 805  
Moisture  
Dew Point 31 °F    
Average Humidity 49    
Maximum Humidity 76    
Minimum Humidity 22    
Precipitation  
Precipitation T in 0.03 in 0.44 in (1931)
Month to date precipitation 0.96 0.84  
Year to date precipitation 11.87 10.04  
Snow  
Snow 0.00 in 0.00 in 0.00 in (1995)
Month to date snowfall 0.0 0.0  
Since 1 July snowfall 0.0 0.0  
Since 1 September snowfall 0.0 0.0  
Snow Depth 0.00 in    
Sea Level Pressure  
Sea Level Pressure 30.10 in    
Wind  
Wind Speed 9 mph (ESE)    
Max Wind Speed 24 mph    
Max Gust Speed 33 mph    
Visibility 10 miles    
Events Rain    
T = Trace of Precipitation, MM = Missing Value Source: NWS Daily Summary

Daily Weather History Graph

Daily Weather History Graph

Search for Another Location

Airport or City:

Trip Planner

Search our weather history database for the weather conditions in past years. The results will help you decide how hot, cold, wet, or windy it might be!

Date:

Astronomy

Oct. 28, 2011 Rise Set
Actual Time 7:23 AM PDT 5:39 PM PDT
Civil Twilight 6:52 AM PDT 6:10 PM PDT
Nautical Twilight 6:16 AM PDT 6:46 PM PDT
Astronomical Twilight 5:42 AM PDT 7:20 PM PDT
Moon 9:55 AM PDT (10/28) 6:55 PM PDT (10/28)
Length of Visible Light 11h 18m
Length of Day
10h 16m
Waxing Crescent, 6% of the Moon is Illuminated
Oct 28
Waxing Crescent
Nov 2
First Quarter
Nov 10
Full
Nov 18
Last Quarter
Nov 24
New

Hourly Weather History & Observations

Time (PDT) Temp. Windchill Dew Point Humidity Pressure Visibility Wind Dir Wind Speed Gust Speed Precip Events Conditions
12:56 AM 37.0 °F 33.3 °F 28.0 °F 70% 30.27 in 10.0 mi SE 4.6 mph - N/A   Clear
1:56 AM 37.0 °F 31.0 °F 30.9 °F 79% 30.27 in 10.0 mi East 8.1 mph - N/A   Clear
2:56 AM 37.9 °F 30.9 °F 30.9 °F 76% 30.24 in 10.0 mi East 10.4 mph - N/A   Clear
3:56 AM 37.9 °F 30.9 °F 30.9 °F 76% 30.23 in 10.0 mi East 10.4 mph - N/A   Clear
4:56 AM 37.9 °F 35.5 °F 30.9 °F 76% 30.22 in 10.0 mi East 3.5 mph - N/A   Clear
5:56 AM 39.0 °F 34.8 °F 30.9 °F 73% 30.22 in 10.0 mi ENE 5.8 mph - N/A   Clear
6:56 AM 39.0 °F 31.0 °F 30.9 °F 73% 30.19 in 10.0 mi ENE 13.8 mph - N/A   Clear
7:56 AM 37.9 °F 30.9 °F 30.9 °F 76% 30.20 in 10.0 mi ENE 10.4 mph - N/A   Clear
8:56 AM 39.9 °F 34.5 °F 30.9 °F 70% 30.19 in 10.0 mi ENE 8.1 mph - N/A   Clear
9:56 AM 45.0 °F 41.2 °F 32.0 °F 60% 30.16 in 10.0 mi ENE 6.9 mph - N/A   Clear
10:56 AM 51.1 °F - 30.0 °F 44% 30.13 in 10.0 mi SE 12.7 mph - N/A   Partly Cloudy
11:56 AM 51.1 °F - 30.0 °F 44% 30.12 in 10.0 mi ESE 11.5 mph - N/A   Clear
12:56 PM 52.0 °F - 28.9 °F 41% 30.10 in 10.0 mi Calm Calm - N/A   Scattered Clouds
1:56 PM 55.0 °F - 30.0 °F 38% 30.06 in 10.0 mi Calm Calm - N/A   Clear
2:56 PM 54.0 °F - 30.0 °F 40% 30.02 in 10.0 mi Calm Calm - N/A   Clear
3:56 PM 55.9 °F - 30.0 °F 37% 30.00 in 10.0 mi SE 6.9 mph - N/A   Clear
4:56 PM 57.0 °F - 30.0 °F 36% 29.98 in 10.0 mi SE 6.9 mph - N/A   Mostly Cloudy
5:56 PM 55.9 °F - 28.9 °F 36% 29.97 in 10.0 mi South 5.8 mph - N/A   Overcast
6:56 PM 60.1 °F - 21.9 °F 23% 29.96 in 10.0 mi SSW 16.1 mph 23.0 mph N/A   Mostly Cloudy
7:37 PM 53.6 °F - 30.2 °F 41% 29.98 in 10.0 mi NW 8.1 mph - N/A   Mostly Cloudy
7:56 PM 54.0 °F - 30.0 °F 40% 30.00 in 10.0 mi SSW 4.6 mph - N/A   Overcast
8:56 PM 54.0 °F - 28.9 °F 38% 30.01 in 10.0 mi SSE 5.8 mph - N/A   Overcast
9:56 PM 53.1 °F - 35.1 °F 50% 30.00 in 10.0 mi SW 5.8 mph - 0.00 in Rain Light Rain
10:56 PM 55.9 °F - 37.9 °F 51% 29.99 in 10.0 mi SW 20.7 mph 28.8 mph 0.00 in   Overcast
11:56 PM 54.0 °F - 37.9 °F 55% 29.99 in 10.0 mi South 19.6 mph 25.3 mph 0.00 in   Overcast